Retour au catalogue

COSMOS 2481

ActifNavigationPO
NORAD 38733·PAYLOAD·🇷🇺 Russia

Lancé Jul 28, 2012 depuis Plesetsk Cosmodrome

Loading…

Prochains Passages (prochaines 24 heures)

TLE

FraisSource: Space-Track

Époque: Sep 14, 2026, 14:24 UTC

1 38733U 12041A   26257.60033472 -.00000027  00000-0 -26341-3 0  9999
2 38733  82.4792  19.4640 0018084 239.3997 120.5299 12.42436297640856

Suivez COSMOS 2481 en temps réel avec AllMySat

Download on the App Store